Tracking 20623 objects as of 3-Apr-2020
HD Live streaming from Space Station
objects crossing your sky now

COSMOS 1884 (GLONASS)

Track COSMOS 1884 (GLONASS) now!
COSMOS 1884 (GLONASS) is classified as:


NORAD ID: 18356
Int'l Code: 1987-079B
Perigee: 19,089.8 km
Apogee: 19,184.2 km
Inclination: 65.9 °
Period: 675.7 minutes
Semi major axis: 25507 km
RCS: 0.8552 m2 (medium)
Launch date: September 16, 1987
Source: Commonwealth of Independent States (former USSR) (CIS)
Launch site: TYURATAM MISSILE AND SPACE COMPLEX (TTMTR)
aabbcc
Your satellite tracking list
Your tracking list is empty




NASA's NSSDC Master Catalog

Two Line Element Set (TLE):
1 18356U 87079B   20093.53601041 -.00000039  00000-0  00000+0 0  9990
2 18356  65.8979  34.6257 0018490 222.6652 315.2814  2.13102354253424
Source of the keplerian elements: AFSPC